ANZ545 YBCS-NZCH

Flight info

Callsign ANZ545
Flight time N/A
Altitude 37000
Route AKROM Z17 OVRON A346 VEMLA/N0438F390 A346 TEKEP DCT 35S168E DCT KABKA
Aircraft A20N/M-SDE2E3FGHIRWXY/LB1

Departure

Time 2026-04-28 00:59
Airport Cairns International Airport (YBCS)

Arrival

Time N/A
Airport Christchurch International Airport (NZCH)
Time Latitude Longitude Altitude Speed Heading
2026-04-28 00:36 -16.87262 145.75402 19 ft 0 kts 157°
2026-04-28 00:51 -16.87249 145.75396 19 ft 2 kts 161°
2026-04-28 00:51 -16.87233 145.75391 22 ft 2 kts 165°
2026-04-28 00:51 -16.87217 145.75387 20 ft 2 kts 173°
2026-04-28 00:51 -16.87201 145.75386 21 ft 2 kts 186°
2026-04-28 00:52 -16.87190 145.75388 19 ft 2 kts 201°
2026-04-28 00:52 -16.87176 145.75397 19 ft 2 kts 230°
2026-04-28 00:52 -16.87168 145.75409 19 ft 1 kts 245°
2026-04-28 00:52 -16.87167 145.75412 19 ft 0 kts 246°
2026-04-28 00:56 -16.87168 145.75407 19 ft 5 kts 248°
2026-04-28 00:56 -16.87203 145.75300 19 ft 24 kts 246°
2026-04-28 00:56 -16.87278 145.75123 22 ft 28 kts 245°
2026-04-28 00:56 -16.87306 145.74935 16 ft 27 kts 290°
2026-04-28 00:57 -16.87166 145.74817 16 ft 23 kts 339°
2026-04-28 00:57 -16.87049 145.74717 13 ft 24 kts 266°
2026-04-28 00:57 -16.87049 145.74559 11 ft 23 kts 321°
2026-04-28 00:57 -16.86894 145.74486 13 ft 26 kts 338°
2026-04-28 00:58 -16.86715 145.74411 16 ft 27 kts 337°
2026-04-28 00:58 -16.86600 145.74349 19 ft 11 kts
2026-04-28 00:58 -16.86592 145.74366 19 ft 2 kts 102°
2026-04-28 00:58 -16.86624 145.74381 18 ft 11 kts 162°
2026-04-28 00:59 -16.86881 145.74491 13 ft 73 kts 156°
2026-04-28 00:59 -16.87530 145.74785 20 ft 127 kts 156°
2026-04-28 00:59 -16.88467 145.75212 156 ft 156 kts 156°
2026-04-28 00:59 -16.89437 145.75674 829 ft 156 kts 151°
2026-04-28 01:00 -16.90121 145.76570 1332 ft 170 kts 105°
2026-04-28 01:00 -16.89888 145.77799 1927 ft 189 kts 63°
2026-04-28 01:00 -16.88998 145.78917 2465 ft 208 kts 49°
2026-04-28 01:00 -16.87898 145.79911 3345 ft 209 kts 44°
2026-04-28 01:01 -16.86748 145.80824 4185 ft 206 kts 43°
2026-04-28 01:01 -16.85628 145.81696 4970 ft 202 kts 44°
2026-04-28 01:01 -16.84762 145.82810 5641 ft 195 kts 73°
2026-04-28 01:01 -16.84526 145.84175 6301 ft 195 kts 89°
2026-04-28 01:02 -16.84438 145.85667 6558 ft 219 kts 90°
2026-04-28 01:02 -16.84356 145.87336 6927 ft 241 kts 89°
2026-04-28 01:02 -16.84283 145.89158 7367 ft 260 kts 94°
2026-04-28 01:02 -16.84679 145.91016 8000 ft 266 kts 115°
2026-04-28 01:03 -16.85768 145.92572 8778 ft 270 kts 138°
2026-04-28 01:03 -16.87367 145.93646 9472 ft 279 kts 149°
2026-04-28 01:03 -16.89082 145.94633 10167 ft 284 kts 150°
2026-04-28 01:03 -16.90871 145.95654 10490 ft 305 kts 150°
2026-04-28 01:04 -16.92795 145.96760 10682 ft 327 kts 150°
2026-04-28 01:04 -16.94837 145.97938 11142 ft 340 kts 151°
2026-04-28 01:04 -16.96924 145.99148 11846 ft 347 kts 152°
2026-04-28 01:04 -16.99030 146.00371 12432 ft 354 kts 152°
2026-04-28 01:05 -17.01200 146.01632 13048 ft 359 kts 153°
2026-04-28 01:05 -17.03405 146.02913 13627 ft 366 kts 154°
2026-04-28 01:05 -17.05642 146.04211 14222 ft 369 kts 154°
2026-04-28 01:05 -17.07890 146.05516 14854 ft 370 kts 154°
2026-04-28 01:06 -17.10153 146.06828 15436 ft 374 kts 154°
2026-04-28 01:06 -17.12438 146.08153 15995 ft 377 kts 154°
2026-04-28 01:06 -17.14738 146.09488 16575 ft 379 kts 154°
2026-04-28 01:06 -17.17056 146.10832 17106 ft 383 kts 154°
2026-04-28 01:07 -17.19397 146.12191 17653 ft 386 kts 154°
2026-04-28 01:07 -17.21754 146.13560 18171 ft 389 kts 154°
2026-04-28 01:07 -17.24130 146.14941 18660 ft 392 kts 154°
2026-04-28 01:07 -17.26490 146.16312 19120 ft 394 kts 154°
2026-04-28 01:08 -17.28896 146.17710 19561 ft 397 kts 154°
2026-04-28 01:08 -17.31324 146.19121 20018 ft 400 kts 154°
2026-04-28 01:08 -17.33765 146.20540 20473 ft 403 kts 154°
2026-04-28 01:08 -17.36236 146.21978 20921 ft 406 kts 154°
2026-04-28 01:09 -17.38713 146.23419 21383 ft 408 kts 154°
2026-04-28 01:09 -17.41206 146.24870 21841 ft 412 kts 154°
2026-04-28 01:09 -17.43719 146.26333 22305 ft 414 kts 154°
2026-04-28 01:09 -17.46248 146.27806 22767 ft 418 kts 154°
2026-04-28 01:10 -17.48795 146.29290 23211 ft 421 kts 154°
2026-04-28 01:10 -17.51366 146.30788 23644 ft 424 kts 154°
2026-04-28 01:10 -17.53913 146.32273 24012 ft 426 kts 154°
2026-04-28 01:10 -17.56512 146.33788 24402 ft 428 kts 154°
2026-04-28 01:11 -17.59131 146.35316 24768 ft 431 kts 154°
2026-04-28 01:11 -17.61756 146.36848 25136 ft 433 kts 154°
2026-04-28 01:11 -17.64400 146.38391 25496 ft 436 kts 154°
2026-04-28 01:11 -17.67054 146.39941 25854 ft 438 kts 154°
2026-04-28 01:12 -17.69729 146.41503 26213 ft 440 kts 154°
2026-04-28 01:12 -17.72415 146.43073 26561 ft 443 kts 154°
2026-04-28 01:12 -17.75113 146.44650 26908 ft 445 kts 154°
2026-04-28 01:12 -17.77826 146.46235 27242 ft 448 kts 154°
2026-04-28 01:13 -17.80552 146.47830 27589 ft 450 kts 154°
2026-04-28 01:13 -17.86056 146.51050 28231 ft 455 kts 154°
2026-04-28 01:13 -17.88791 146.52652 28544 ft 457 kts 154°
2026-04-28 01:14 -17.91577 146.54284 28838 ft 459 kts 154°
2026-04-28 01:14 -17.94375 146.55923 29143 ft 462 kts 154°
2026-04-28 01:14 -17.97184 146.57570 29419 ft 464 kts 154°
2026-04-28 01:14 -18.00007 146.59225 29705 ft 466 kts 154°
2026-04-28 01:15 -18.02846 146.60891 29995 ft 468 kts 154°
2026-04-28 01:15 -18.05694 146.62562 30263 ft 470 kts 154°
2026-04-28 01:15 -18.08555 146.64242 30505 ft 472 kts 154°
2026-04-28 01:15 -18.11429 146.65930 30764 ft 474 kts 154°
2026-04-28 01:16 -18.14308 146.67621 31019 ft 475 kts 154°
2026-04-28 01:16 -18.17197 146.69320 31304 ft 476 kts 154°
2026-04-28 01:16 -18.20087 146.71019 31635 ft 475 kts 154°
2026-04-28 01:16 -18.22970 146.72715 31952 ft 475 kts 154°
2026-04-28 01:17 -18.25854 146.74413 32275 ft 474 kts 154°
2026-04-28 01:17 -18.28734 146.76108 32587 ft 473 kts 154°
2026-04-28 01:17 -18.31601 146.77797 32904 ft 473 kts 153°
2026-04-28 01:17 -18.34398 146.79641 33191 ft 475 kts 147°
2026-04-28 01:18 -18.36990 146.81806 33481 ft 477 kts 140°
2026-04-28 01:18 -18.39367 146.84247 33764 ft 477 kts 136°
2026-04-28 01:18 -18.41699 146.86736 34029 ft 477 kts 137°
2026-04-28 01:18 -18.44035 146.89213 34285 ft 476 kts 137°
2026-04-28 01:19 -18.46339 146.91654 34517 ft 476 kts 137°
2026-04-28 01:19 -18.48672 146.94125 34716 ft 476 kts 137°
2026-04-28 01:19 -18.51007 146.96603 34913 ft 476 kts 137°
2026-04-28 01:19 -18.53339 146.99080 35103 ft 476 kts 137°
2026-04-28 01:20 -18.55669 147.01557 35297 ft 476 kts 137°
2026-04-28 01:20 -18.57999 147.04036 35486 ft 475 kts 137°
2026-04-28 01:20 -18.60326 147.06512 35651 ft 476 kts 137°
2026-04-28 01:20 -18.62656 147.08992 35821 ft 476 kts 137°
2026-04-28 01:21 -18.64980 147.11468 35991 ft 476 kts 137°
2026-04-28 01:21 -18.67312 147.13951 36151 ft 476 kts 137°
2026-04-28 01:21 -18.69617 147.16408 36313 ft 476 kts 137°
2026-04-28 01:21 -18.71947 147.18893 36467 ft 475 kts 137°
2026-04-28 01:22 -18.74268 147.21370 36632 ft 475 kts 137°
2026-04-28 01:22 -18.76595 147.23852 36785 ft 475 kts 137°
2026-04-28 01:22 -18.78916 147.26331 36932 ft 475 kts 137°
2026-04-28 01:22 -18.81237 147.28810 37053 ft 475 kts 137°
2026-04-28 01:23 -18.85875 147.33767 37066 ft 474 kts 137°
2026-04-28 01:23 -18.90505 147.38719 37059 ft 473 kts 137°
2026-04-28 01:24 -18.95135 147.43676 37062 ft 473 kts 137°
2026-04-28 01:24 -18.99757 147.48628 37056 ft 473 kts 137°
2026-04-28 01:25 -19.04378 147.53584 37055 ft 473 kts 137°
2026-04-28 01:25 -19.08960 147.58502 37052 ft 472 kts 137°
2026-04-28 01:26 -19.13576 147.63460 37057 ft 472 kts 137°
2026-04-28 01:26 -19.18192 147.68422 37052 ft 472 kts 137°
2026-04-28 01:27 -19.22797 147.73377 37056 ft 472 kts 137°
2026-04-28 01:27 -19.27403 147.78338 37054 ft 472 kts 137°
2026-04-28 01:28 -19.31953 147.83242 37056 ft 472 kts 137°
2026-04-28 01:28 -19.36538 147.88189 37057 ft 473 kts 136°
2026-04-28 01:29 -19.41140 147.93157 37057 ft 473 kts 136°
2026-04-28 01:29 -19.45751 147.98140 37058 ft 473 kts 136°
2026-04-28 01:30 -19.50359 148.03123 37060 ft 473 kts 136°
2026-04-28 01:30 -19.54971 148.08115 37059 ft 474 kts 136°
2026-04-28 01:31 -19.59582 148.13111 37062 ft 474 kts 136°
2026-04-28 01:31 -19.64193 148.18111 37063 ft 474 kts 136°
2026-04-28 01:32 -19.68811 148.23122 37060 ft 474 kts 136°
2026-04-28 01:32 -19.73423 148.28133 37061 ft 474 kts 136°
2026-04-28 01:33 -19.78004 148.33113 37059 ft 475 kts 136°
2026-04-28 01:33 -19.82624 148.38140 37065 ft 475 kts 136°
2026-04-28 01:34 -19.87237 148.43164 37064 ft 475 kts 136°
2026-04-28 01:34 -19.91848 148.48191 37067 ft 475 kts 136°
2026-04-28 01:35 -19.96460 148.53223 37064 ft 475 kts 136°
2026-04-28 01:35 -20.01068 148.58254 37065 ft 475 kts 136°
2026-04-28 01:36 -20.05672 148.63287 37067 ft 475 kts 136°
2026-04-28 01:36 -20.10277 148.68325 37067 ft 475 kts 136°
2026-04-28 01:37 -20.14855 148.73337 37068 ft 475 kts 136°
2026-04-28 01:37 -20.19462 148.78387 37073 ft 475 kts 136°
2026-04-28 01:38 -20.24074 148.83447 37072 ft 476 kts 136°
2026-04-28 01:38 -20.28678 148.88501 37077 ft 475 kts 136°
2026-04-28 01:39 -20.33285 148.93561 37076 ft 475 kts 136°
2026-04-28 01:39 -20.36841 148.98038 37076 ft 478 kts 127°
2026-04-28 01:40 -20.41452 149.04700 37069 ft 478 kts 128°
2026-04-28 01:40 -20.45413 149.10385 37074 ft 478 kts 128°
2026-04-28 01:41 -20.49374 149.16085 37074 ft 478 kts 128°
2026-04-28 01:41 -20.53301 149.21747 37071 ft 478 kts 128°
2026-04-28 01:42 -20.57254 149.27450 37071 ft 478 kts 128°
2026-04-28 01:42 -20.60567 149.32228 37067 ft 478 kts 128°
2026-04-28 01:43 -20.64527 149.37936 37070 ft 478 kts 128°
2026-04-28 01:43 -20.68489 149.43649 37069 ft 478 kts 128°
2026-04-28 01:44 -20.72423 149.49329 37072 ft 479 kts 128°
2026-04-28 01:44 -20.76384 149.55053 37068 ft 479 kts 128°
2026-04-28 01:45 -20.80341 149.60781 37068 ft 479 kts 128°
2026-04-28 01:45 -20.84301 149.66519 37072 ft 479 kts 128°
2026-04-28 01:46 -20.88257 149.72257 37072 ft 480 kts 128°
2026-04-28 01:46 -20.92214 149.78002 37071 ft 480 kts 128°
2026-04-28 01:47 -20.96171 149.83754 37072 ft 480 kts 128°
2026-04-28 01:47 -21.00135 149.89519 37070 ft 481 kts 128°
2026-04-28 01:48 -21.04096 149.95289 37072 ft 481 kts 128°
2026-04-28 01:48 -21.08038 150.01036 37074 ft 482 kts 128°
2026-04-28 01:49 -21.12004 150.06823 37073 ft 482 kts 128°
2026-04-28 01:49 -21.15969 150.12616 37072 ft 482 kts 128°
2026-04-28 01:50 -21.19937 150.18418 37072 ft 482 kts 128°
2026-04-28 01:50 -21.23904 150.24225 37075 ft 483 kts 128°
2026-04-28 01:51 -21.27868 150.30034 37073 ft 483 kts 128°
2026-04-28 01:51 -21.31835 150.35854 37073 ft 483 kts 128°
2026-04-28 01:52 -21.35085 150.40625 37068 ft 483 kts 128°
2026-04-28 01:52 -21.39051 150.46455 37069 ft 484 kts 128°
2026-04-28 01:53 -21.43018 150.52291 37072 ft 484 kts 128°
2026-04-28 01:53 -21.46990 150.58142 37070 ft 484 kts 128°
2026-04-28 01:54 -21.50965 150.64002 37073 ft 485 kts 128°
2026-04-28 01:54 -21.54933 150.69858 37073 ft 485 kts 128°
2026-04-28 01:55 -21.58881 150.75692 37076 ft 486 kts 128°
2026-04-28 01:55 -21.62854 150.81568 37072 ft 486 kts 128°
2026-04-28 01:56 -21.66830 150.87455 37071 ft 486 kts 128°
2026-04-28 01:56 -21.70806 150.93348 37078 ft 487 kts 128°
2026-04-28 01:57 -21.74784 150.99250 37071 ft 487 kts 128°
2026-04-28 01:57 -21.78758 151.05154 37081 ft 487 kts 128°
2026-04-28 01:58 -21.82706 151.11025 37081 ft 488 kts 128°
2026-04-28 01:58 -21.86682 151.16945 37078 ft 488 kts 128°
2026-04-28 01:59 -21.90624 151.22820 37072 ft 488 kts 128°
2026-04-28 01:59 -21.94601 151.28752 37076 ft 489 kts 128°
2026-04-28 02:00 -21.98476 151.34541 37079 ft 489 kts 128°
2026-04-28 02:00 -22.02434 151.40458 37072 ft 490 kts 128°
2026-04-28 02:01 -22.06391 151.46380 37068 ft 490 kts 128°
2026-04-28 02:01 -22.10379 151.52357 37078 ft 491 kts 128°
2026-04-28 02:02 -22.14367 151.58340 37074 ft 491 kts 128°
2026-04-28 02:02 -22.18355 151.64329 37078 ft 492 kts 128°
2026-04-28 02:03 -22.22348 151.70333 37077 ft 493 kts 128°
2026-04-28 02:03 -22.26348 151.76353 37081 ft 494 kts 128°
2026-04-28 02:04 -22.30347 151.82378 37082 ft 494 kts 128°
2026-04-28 02:04 -22.34359 151.88431 37084 ft 495 kts 127°
2026-04-28 02:05 -22.38355 151.94465 37085 ft 496 kts 127°
2026-04-28 02:05 -22.42372 152.00539 37085 ft 497 kts 127°
2026-04-28 02:06 -22.46388 152.06618 37088 ft 497 kts 127°
2026-04-28 02:06 -22.50410 152.12713 37195 ft 498 kts 127°
2026-04-28 02:07 -22.52426 152.15771 37350 ft 498 kts 127°
2026-04-28 02:07 -22.54435 152.18819 37494 ft 498 kts 127°
2026-04-28 02:07 -22.56444 152.21870 37625 ft 498 kts 127°
2026-04-28 02:07 -22.58451 152.24919 37757 ft 498 kts 127°
2026-04-28 02:08 -22.60464 152.27979 37881 ft 498 kts 127°
2026-04-28 02:08 -22.62446 152.30994 37990 ft 498 kts 127°
2026-04-28 02:08 -22.66466 152.37114 38084 ft 498 kts 127°
2026-04-28 02:09 -22.70483 152.43239 38085 ft 499 kts 127°
2026-04-28 02:09 -22.74497 152.49364 38084 ft 499 kts 127°
2026-04-28 02:10 -22.78524 152.55517 38084 ft 500 kts 127°
2026-04-28 02:10 -22.82550 152.61673 38079 ft 501 kts 127°
2026-04-28 02:11 -22.86558 152.67812 38087 ft 502 kts 127°
2026-04-28 02:11 -22.90596 152.74003 38089 ft 503 kts 127°
2026-04-28 02:12 -22.94638 152.80207 38095 ft 504 kts 127°
2026-04-28 02:12 -22.98685 152.86428 38093 ft 504 kts 127°
2026-04-28 02:13 -23.02736 152.92661 38092 ft 505 kts 126°
2026-04-28 02:13 -23.06788 152.98904 38084 ft 505 kts 126°
2026-04-28 02:14 -23.10833 153.05143 38083 ft 505 kts 126°
2026-04-28 02:14 -23.14857 153.11357 38085 ft 506 kts 126°
2026-04-28 02:15 -23.20942 153.20768 38084 ft 507 kts 126°
2026-04-28 02:16 -23.25001 153.27055 38083 ft 508 kts 126°
2026-04-28 02:16 -23.29066 153.33360 38084 ft 509 kts 126°
2026-04-28 02:17 -23.33108 153.39637 38091 ft 510 kts 126°
2026-04-28 02:17 -23.37182 153.45970 38091 ft 510 kts 126°
2026-04-28 02:18 -23.41254 153.52307 38092 ft 511 kts 126°
2026-04-28 02:18 -23.45329 153.58660 38098 ft 512 kts 126°
2026-04-28 02:19 -23.49407 153.65024 38095 ft 512 kts 126°
2026-04-28 02:19 -23.53463 153.71363 38098 ft 513 kts 126°
2026-04-28 02:20 -23.57546 153.77748 38096 ft 513 kts 126°
2026-04-28 02:20 -23.61627 153.84140 38094 ft 514 kts 126°
2026-04-28 02:21 -23.65713 153.90547 38091 ft 514 kts 126°
2026-04-28 02:21 -23.69796 153.96959 38092 ft 514 kts 126°
2026-04-28 02:22 -23.73849 154.03332 38093 ft 515 kts 126°
2026-04-28 02:22 -23.77931 154.09755 38094 ft 515 kts 126°
2026-04-28 02:23 -23.82015 154.16188 38088 ft 515 kts 126°
2026-04-28 02:23 -23.86101 154.22630 38090 ft 516 kts 126°
2026-04-28 02:24 -23.90329 154.28965 38081 ft 515 kts 131°
2026-04-28 02:24 -23.94951 154.34951 38087 ft 515 kts 132°
2026-04-28 02:25 -23.99554 154.40969 38088 ft 516 kts 131°
2026-04-28 02:25 -24.04122 154.47042 38093 ft 517 kts 131°
2026-04-28 02:26 -24.08653 154.53096 38093 ft 517 kts 130°
2026-04-28 02:26 -24.13215 154.59203 38093 ft 518 kts 130°
2026-04-28 02:27 -24.17781 154.65321 38097 ft 519 kts 130°
2026-04-28 02:27 -24.22349 154.71450 38097 ft 519 kts 130°
2026-04-28 02:28 -24.26921 154.77591 38103 ft 520 kts 130°
2026-04-28 02:28 -24.31498 154.83747 38104 ft 521 kts 130°
2026-04-28 02:29 -24.36045 154.89870 38108 ft 521 kts 130°
2026-04-28 02:29 -24.40627 154.96049 38103 ft 522 kts 130°
2026-04-28 02:30 -24.45215 155.02243 38109 ft 522 kts 130°
2026-04-28 02:30 -24.49805 155.08448 38108 ft 523 kts 130°
2026-04-28 02:31 -24.54384 155.14647 38110 ft 523 kts 130°
2026-04-28 02:31 -24.58934 155.20813 38112 ft 523 kts 130°
2026-04-28 02:32 -24.61313 155.24041 38109 ft 523 kts 130°
2026-04-28 02:32 -24.64397 155.28228 38106 ft 523 kts 130°
2026-04-28 02:33 -24.68202 155.33398 38105 ft 523 kts 130°
2026-04-28 02:33 -24.72782 155.39630 38103 ft 523 kts 130°
2026-04-28 02:34 -24.77367 155.45877 38108 ft 523 kts 130°
2026-04-28 02:34 -24.81941 155.52117 38104 ft 524 kts 130°
2026-04-28 02:35 -24.86513 155.58361 38102 ft 524 kts 130°
2026-04-28 02:35 -24.91082 155.64610 38105 ft 524 kts 129°
2026-04-28 02:36 -24.95619 155.70825 38102 ft 524 kts 129°
2026-04-28 02:36 -25.00194 155.77097 38101 ft 524 kts 129°
2026-04-28 02:37 -25.04761 155.83369 38101 ft 525 kts 129°
2026-04-28 02:37 -25.09328 155.89648 38102 ft 525 kts 129°
2026-04-28 02:38 -25.13897 155.95939 38105 ft 525 kts 129°
2026-04-28 02:38 -25.18468 156.02241 38109 ft 526 kts 129°
2026-04-28 02:39 -25.23042 156.08555 38105 ft 526 kts 129°
2026-04-28 02:39 -25.27609 156.14867 38106 ft 527 kts 129°
2026-04-28 02:40 -25.32151 156.21154 38108 ft 527 kts 129°
2026-04-28 02:40 -25.36725 156.27493 38126 ft 528 kts 129°
2026-04-28 02:41 -25.41301 156.33844 38105 ft 528 kts 129°
2026-04-28 02:41 -25.45879 156.40207 38117 ft 529 kts 129°
2026-04-28 02:42 -25.50464 156.46588 38113 ft 529 kts 129°
2026-04-28 02:42 -25.55048 156.52976 38113 ft 530 kts 129°
2026-04-28 02:43 -25.59631 156.59372 38123 ft 530 kts 129°
2026-04-28 02:43 -25.64214 156.65775 38116 ft 530 kts 129°
2026-04-28 02:44 -25.68768 156.72148 38121 ft 531 kts 129°
2026-04-28 02:44 -25.73351 156.78571 38126 ft 531 kts 129°
2026-04-28 02:45 -25.77925 156.84996 38120 ft 531 kts 129°
2026-04-28 02:45 -25.82508 156.91431 38120 ft 531 kts 129°
2026-04-28 02:46 -25.87095 156.97882 38125 ft 532 kts 129°
2026-04-28 02:46 -25.91676 157.04337 38126 ft 532 kts 129°
2026-04-28 02:47 -25.96254 157.10800 38125 ft 532 kts 129°
2026-04-28 02:47 -26.00835 157.17277 38126 ft 532 kts 129°
2026-04-28 02:48 -26.05407 157.23748 38124 ft 532 kts 129°
2026-04-28 02:48 -26.09953 157.30189 38126 ft 533 kts 129°
2026-04-28 02:49 -26.14525 157.36677 38125 ft 533 kts 129°
2026-04-28 02:49 -26.19099 157.43180 37795 ft 539 kts 127°
2026-04-28 02:49 -26.21338 157.46496 38205 ft 527 kts 128°
2026-04-28 02:50 -26.23586 157.49631 39033 ft 509 kts 130°
2026-04-28 02:50 -26.25083 157.51607 39479 ft 498 kts 132°
2026-04-28 02:50 -26.25674 157.52363 39646 ft 493 kts 133°